When you browse on this site, cookies collect data to enhance your experience and personalize the content and advertising you see.
Visit our Privacy Policy to learn more. By continuing to use the site, you agree to this use of cookies and data.
  • In Hungary
  • List of Countries
  • For 7 days
  • Water Temperature
  • Weather Map
  • News
  • Weather Widgets
  • user-avatar
    Login

    Hourly Weather Aluferevo

    Today, 22 January, Wednesday

    Time Temperature Precipitation Wind Pressure Humidity
    00:00 -4°C° 0 mm 6 mps 728 mmHg 79%
    01:00 -4°C° 0 mm 5 mps 728 mmHg 81%
    02:00 -4°C° 0 mm 5 mps 728 mmHg 83%
    03:00 -4°C° 0 mm 5 mps 727 mmHg 83%
    04:00 -4°C° 0 mm 5 mps 726 mmHg 84%
    05:00 -3°C° 0 mm 4 mps 725 mmHg 84%
    06:00 -3°C° 0.1 mm 4 mps 725 mmHg 85%
    07:00 -4°C° 0.1 mm 5 mps 725 mmHg 86%
    08:00 -4°C° 0.1 mm 5 mps 724 mmHg 87%
    09:00 -4°C° 0.1 mm 5 mps 724 mmHg 82%
    10:00 -4°C° 0.1 mm 5 mps 724 mmHg 77%
    11:00 -4°C° 0.1 mm 5 mps 724 mmHg 73%
    12:00 -4°C° 0 mm 5 mps 724 mmHg 72%
    13:00 -4°C° 0 mm 5 mps 724 mmHg 72%
    14:00 -4°C° 0 mm 5 mps 724 mmHg 72%
    15:00 -5°C° 0 mm 5 mps 725 mmHg 74%
    16:00 -5°C° 0 mm 5 mps 725 mmHg 76%
    17:00 -6°C° 0 mm 5 mps 725 mmHg 78%
    18:00 -6°C° 0 mm 5 mps 726 mmHg 78%
    19:00 -6°C° 0 mm 5 mps 726 mmHg 79%
    20:00 -6°C° 0 mm 5 mps 727 mmHg 79%
    21:00 -6°C° 0 mm 5 mps 727 mmHg 79%
    22:00 -6°C° 0 mm 5 mps 728 mmHg 80%
    23:00 -7°C° 0 mm 5 mps 728 mmHg 80%

    Tomorrow, 23 January, Thursday

    Time Temperature Precipitation Wind Pressure Humidity
    00:00 -8°C° 0.1 mm 6 mps 729 mmHg 79%
    01:00 -8°C° 0.1 mm 6 mps 730 mmHg 77%
    02:00 -9°C° 0.1 mm 6 mps 730 mmHg 76%
    03:00 -9°C° 0 mm 6 mps 731 mmHg 74%
    04:00 -10°C° 0 mm 6 mps 731 mmHg 72%
    05:00 -10°C° 0 mm 6 mps 732 mmHg 71%
    06:00 -10°C° 0 mm 6 mps 732 mmHg 68%
    07:00 -10°C° 0 mm 6 mps 733 mmHg 65%
    08:00 -11°C° 0 mm 5 mps 734 mmHg 62%
    09:00 -10°C° 0 mm 5 mps 734 mmHg 67%
    10:00 -10°C° 0 mm 5 mps 734 mmHg 72%
    11:00 -8°C° 0 mm 5 mps 734 mmHg 77%
    12:00 -8°C° 0.2 mm 5 mps 735 mmHg 76%
    13:00 -8°C° 0.2 mm 5 mps 735 mmHg 75%
    14:00 -8°C° 0.2 mm 6 mps 735 mmHg 75%
    15:00 -8°C° 0.1 mm 5 mps 736 mmHg 73%
    16:00 -8°C° 0.1 mm 4 mps 736 mmHg 71%
    17:00 -8°C° 0.1 mm 4 mps 736 mmHg 69%
    18:00 -8°C° 0 mm 3 mps 737 mmHg 71%
    19:00 -8°C° 0 mm 3 mps 737 mmHg 72%
    20:00 -8°C° 0 mm 2 mps 737 mmHg 74%
    21:00 -7°C° 0 mm 2 mps 737 mmHg 74%
    22:00 -7°C° 0 mm 2 mps 737 mmHg 74%
    23:00 -7°C° 0 mm 2 mps 737 mmHg 73%

    Day after tomorrow, 24 January, Friday

    Time Temperature Precipitation Wind Pressure Humidity
    00:00 -7°C° 0 mm 3 mps 737 mmHg 76%
    01:00 -7°C° 0 mm 3 mps 736 mmHg 78%
    02:00 -7°C° 0 mm 3 mps 736 mmHg 80%
    03:00 -6°C° 0.1 mm 3 mps 735 mmHg 82%
    04:00 -5°C° 0.1 mm 4 mps 734 mmHg 85%
    05:00 -5°C° 0.1 mm 4 mps 733 mmHg 87%
    06:00 -5°C° 0.1 mm 4 mps 732 mmHg 89%
    07:00 -4°C° 0.1 mm 4 mps 732 mmHg 92%
    08:00 -5°C° 0.1 mm 5 mps 731 mmHg 94%
    09:00 -3°C° 0.1 mm 4 mps 731 mmHg 91%
    10:00 -2°C° 0.1 mm 4 mps 730 mmHg 89%
    11:00 -1°C° 0.1 mm 4 mps 730 mmHg 87%
    12:00 -1°C° 0 mm 4 mps 730 mmHg 87%
    13:00 0°C° 0 mm 4 mps 730 mmHg 87%
    14:00 0°C° 0 mm 4 mps 730 mmHg 87%
    15:00 +1°C° 0.2 mm 3 mps 730 mmHg 91%
    16:00 0°C° 0.2 mm 3 mps 729 mmHg 94%
    17:00 0°C° 0.2 mm 3 mps 729 mmHg 97%
    18:00 0°C° 0.3 mm 3 mps 729 mmHg 97%
    19:00 0°C° 0.3 mm 3 mps 729 mmHg 97%
    20:00 0°C° 0.3 mm 3 mps 730 mmHg 97%
    21:00 +1°C° 0.2 mm 2 mps 730 mmHg 97%
    22:00 +1°C° 0.2 mm 2 mps 729 mmHg 98%
    23:00 +1°C° 0.2 mm 2 mps 729 mmHg 98%

    25 January, Saturday

    Time Temperature Precipitation Wind Pressure Humidity
    00:00 +1°C° 0 mm 2 mps 729 mmHg 98%
    01:00 +1°C° 0 mm 2 mps 729 mmHg 97%
    02:00 +1°C° 0 mm 2 mps 729 mmHg 97%
    03:00 0°C° 0.3 mm 3 mps 729 mmHg 96%
    04:00 +1°C° 0.3 mm 3 mps 729 mmHg 95%
    05:00 0°C° 0.3 mm 4 mps 728 mmHg 94%
    06:00 0°C° 0.1 mm 4 mps 728 mmHg 93%
    07:00 -1°C° 0.1 mm 4 mps 728 mmHg 92%
    08:00 -1°C° 0.1 mm 4 mps 728 mmHg 92%
    09:00 -1°C° 0 mm 4 mps 729 mmHg 89%
    10:00 -1°C° 0 mm 4 mps 729 mmHg 86%
    11:00 0°C° 0 mm 4 mps 729 mmHg 83%
    12:00 -1°C° 0 mm 4 mps 729 mmHg 81%
    13:00 -1°C° 0 mm 4 mps 729 mmHg 79%
    14:00 -1°C° 0 mm 4 mps 729 mmHg 77%
    15:00 -1°C° 0 mm 4 mps 729 mmHg 78%
    16:00 -2°C° 0 mm 5 mps 729 mmHg 79%
    17:00 -2°C° 0 mm 5 mps 729 mmHg 80%
    18:00 -2°C° 0 mm 5 mps 729 mmHg 78%
    19:00 -2°C° 0 mm 5 mps 728 mmHg 75%
    20:00 -3°C° 0 mm 6 mps 728 mmHg 73%
    21:00 -4°C° 0.1 mm 6 mps 728 mmHg 73%
    22:00 -4°C° 0.1 mm 6 mps 729 mmHg 73%
    23:00 -4°C° 0.1 mm 6 mps 729 mmHg 72%

    26 January, Sunday

    Time Temperature Precipitation Wind Pressure Humidity
    00:00 -4°C° 0 mm 6 mps 730 mmHg 72%
    01:00 -5°C° 0 mm 5 mps 730 mmHg 72%
    02:00 -5°C° 0 mm 5 mps 731 mmHg 72%
    03:00 -6°C° 0 mm 5 mps 732 mmHg 72%
    04:00 -6°C° 0 mm 5 mps 732 mmHg 73%
    05:00 -5°C° 0 mm 4 mps 733 mmHg 74%
    06:00 -5°C° 0 mm 4 mps 733 mmHg 75%
    07:00 -6°C° 0 mm 5 mps 734 mmHg 76%
    08:00 -6°C° 0 mm 5 mps 735 mmHg 77%
    09:00 -6°C° 0 mm 5 mps 735 mmHg 75%
    10:00 -5°C° 0 mm 5 mps 736 mmHg 72%
    11:00 -5°C° 0 mm 5 mps 737 mmHg 70%
    12:00 -4°C° 0 mm 4 mps 738 mmHg 70%
    13:00 -4°C° 0 mm 4 mps 738 mmHg 70%
    14:00 -2°C° 0 mm 3 mps 738 mmHg 70%
    15:00 -4°C° 0 mm 3 mps 739 mmHg 73%
    16:00 -3°C° 0 mm 2 mps 739 mmHg 77%
    17:00 -4°C° 0 mm 2 mps 739 mmHg 80%
    18:00 -4°C° 0 mm 2 mps 740 mmHg 81%
    19:00 -4°C° 0 mm 2 mps 740 mmHg 81%
    20:00 -4°C° 0 mm 2 mps 740 mmHg 82%
    21:00 -4°C° 0 mm 2 mps 740 mmHg 82%
    22:00 -4°C° 0 mm 2 mps 740 mmHg 83%
    23:00 -4°C° 0 mm 2 mps 740 mmHg 83%

    27 January, Monday

    Time Temperature Precipitation Wind Pressure Humidity
    00:00 -4°C° 0 mm 2 mps 740 mmHg 86%
    01:00 -5°C° 0 mm 3 mps 740 mmHg 88%
    02:00 -4°C° 0 mm 3 mps 740 mmHg 91%
    03:00 -4°C° 0 mm 3 mps 740 mmHg 92%
    04:00 -4°C° 0 mm 3 mps 739 mmHg 93%
    05:00 -2°C° 0 mm 3 mps 739 mmHg 94%
    06:00 -2°C° 0.1 mm 3 mps 739 mmHg 94%
    07:00 -2°C° 0.1 mm 3 mps 739 mmHg 95%
    08:00 -2°C° 0.1 mm 3 mps 739 mmHg 95%
    09:00 -2°C° 0.2 mm 3 mps 739 mmHg 95%
    10:00 -2°C° 0.2 mm 4 mps 739 mmHg 95%
    11:00 -2°C° 0.2 mm 4 mps 739 mmHg 95%
    12:00 -2°C° 0.3 mm 4 mps 738 mmHg 95%
    13:00 -1°C° 0.3 mm 3 mps 738 mmHg 96%
    14:00 -1°C° 0.3 mm 3 mps 737 mmHg 96%
    15:00 -1°C° 0.2 mm 3 mps 737 mmHg 96%
    16:00 -1°C° 0.2 mm 3 mps 737 mmHg 97%
    17:00 -1°C° 0.2 mm 3 mps 736 mmHg 97%
    18:00 -2°C° 0.1 mm 4 mps 736 mmHg 95%
    19:00 -2°C° 0.1 mm 4 mps 735 mmHg 92%
    20:00 -1°C° 0.1 mm 4 mps 735 mmHg 90%
    21:00 -2°C° 0 mm 4 mps 735 mmHg 91%
    22:00 -2°C° 0 mm 4 mps 734 mmHg 92%
    23:00 -2°C° 0 mm 5 mps 734 mmHg 94%
    Show more